When you browse on this site, cookies collect data to enhance your experience and personalize the content and advertising you see.
Visit our Privacy Policy to learn more. By continuing to use the site, you agree to this use of cookies and data.
  • In Hungary
  • List of Countries
  • For 7 days
  • Water Temperature
  • Weather Map
  • News
  • Weather Widgets
  • user-avatar
    Login

    Hourly Weather Nesebyr

    Today, 12 November, Tuesday

    Time Temperature Precipitation Wind Pressure Humidity
    00:00 +16°C° 0 mm 2 mps 761 mmHg 90%
    01:00 +16°C° 0 mm 2 mps 761 mmHg 90%
    02:00 +15°C° 0 mm 1 mps 762 mmHg 91%
    03:00 +15°C° 0 mm 1 mps 762 mmHg 91%
    04:00 +15°C° 0 mm 1 mps 762 mmHg 90%
    05:00 +15°C° 0 mm 1 mps 761 mmHg 90%
    06:00 +15°C° 0 mm 1 mps 761 mmHg 89%
    07:00 +16°C° 0 mm 1 mps 762 mmHg 89%
    08:00 +16°C° 0 mm 2 mps 762 mmHg 90%
    09:00 +18°C° 0 mm 3 mps 762 mmHg 81%
    10:00 +20°C° 0 mm 3 mps 762 mmHg 72%
    11:00 +21°C° 0 mm 4 mps 762 mmHg 64%
    12:00 +22°C° 0 mm 4 mps 761 mmHg 62%
    13:00 +22°C° 0 mm 4 mps 761 mmHg 60%
    14:00 +22°C° 0 mm 4 mps 760 mmHg 59%
    15:00 +21°C° 0 mm 4 mps 760 mmHg 66%
    16:00 +19°C° 0 mm 3 mps 760 mmHg 74%
    17:00 +18°C° 0 mm 3 mps 759 mmHg 82%
    18:00 +17°C° 0 mm 3 mps 759 mmHg 84%
    19:00 +17°C° 0 mm 2 mps 759 mmHg 87%
    20:00 +16°C° 0 mm 2 mps 759 mmHg 90%
    21:00 +16°C° 0 mm 2 mps 759 mmHg 89%
    22:00 +16°C° 0 mm 2 mps 759 mmHg 88%
    23:00 +15°C° 0 mm 2 mps 759 mmHg 87%

    Tomorrow, 13 November, Wednesday

    Time Temperature Precipitation Wind Pressure Humidity
    00:00 +15°C° 0 mm 2 mps 759 mmHg 85%
    01:00 +15°C° 0 mm 2 mps 759 mmHg 84%
    02:00 +15°C° 0 mm 2 mps 758 mmHg 83%
    03:00 +15°C° 0 mm 2 mps 758 mmHg 81%
    04:00 +15°C° 0 mm 2 mps 758 mmHg 79%
    05:00 +15°C° 0 mm 2 mps 758 mmHg 77%
    06:00 +16°C° 0 mm 2 mps 758 mmHg 74%
    07:00 +16°C° 0 mm 2 mps 758 mmHg 70%
    08:00 +17°C° 0 mm 2 mps 757 mmHg 66%
    09:00 +19°C° 0 mm 2 mps 757 mmHg 59%
    10:00 +21°C° 0 mm 2 mps 757 mmHg 51%
    11:00 +24°C° 0 mm 2 mps 757 mmHg 44%
    12:00 +25°C° 0 mm 2 mps 757 mmHg 41%
    13:00 +25°C° 0 mm 2 mps 757 mmHg 39%
    14:00 +26°C° 0 mm 3 mps 757 mmHg 36%
    15:00 +24°C° 0 mm 2 mps 757 mmHg 42%
    16:00 +23°C° 0 mm 2 mps 757 mmHg 48%
    17:00 +21°C° 0 mm 2 mps 756 mmHg 54%
    18:00 +21°C° 0 mm 1 mps 757 mmHg 57%
    19:00 +21°C° 0 mm 1 mps 757 mmHg 60%
    20:00 +20°C° 0 mm 1 mps 757 mmHg 63%
    21:00 +20°C° 0 mm 1 mps 757 mmHg 64%
    22:00 +20°C° 0 mm 1 mps 757 mmHg 65%
    23:00 +20°C° 0 mm 1 mps 757 mmHg 66%

    Day after tomorrow, 14 November, Thursday

    Time Temperature Precipitation Wind Pressure Humidity
    00:00 +19°C° 0 mm 1 mps 757 mmHg 67%
    01:00 +19°C° 0 mm 1 mps 756 mmHg 68%
    02:00 +19°C° 0 mm 1 mps 756 mmHg 69%
    03:00 +19°C° 0 mm 1 mps 756 mmHg 71%
    04:00 +18°C° 0 mm 1 mps 756 mmHg 72%
    05:00 +18°C° 0 mm 1 mps 756 mmHg 74%
    06:00 +18°C° 0 mm 1 mps 756 mmHg 76%
    07:00 +18°C° 0 mm 1 mps 756 mmHg 78%
    08:00 +18°C° 0 mm 1 mps 756 mmHg 80%
    09:00 +19°C° 0 mm 1 mps 756 mmHg 77%
    10:00 +20°C° 0 mm 1 mps 756 mmHg 73%
    11:00 +21°C° 0 mm 1 mps 756 mmHg 70%
    12:00 +21°C° 0 mm 1 mps 756 mmHg 66%
    13:00 +22°C° 0 mm 1 mps 756 mmHg 62%
    14:00 +22°C° 0 mm 1 mps 756 mmHg 59%
    15:00 +21°C° 0.1 mm 1 mps 756 mmHg 64%
    16:00 +20°C° 0.1 mm 1 mps 756 mmHg 68%
    17:00 +19°C° 0.1 mm 1 mps 756 mmHg 73%
    18:00 +19°C° 0.1 mm 1 mps 756 mmHg 74%
    19:00 +19°C° 0.1 mm 1 mps 757 mmHg 75%
    20:00 +19°C° 0.1 mm 1 mps 757 mmHg 76%
    21:00 +18°C° 0.2 mm 1 mps 757 mmHg 78%
    22:00 +18°C° 0.2 mm 1 mps 757 mmHg 81%
    23:00 +18°C° 0.2 mm 1 mps 757 mmHg 83%

    15 November, Friday

    Time Temperature Precipitation Wind Pressure Humidity
    00:00 +16°C° 0 mm 1 mps 758 mmHg 84%
    01:00 +16°C° 0 mm 1 mps 758 mmHg 85%
    02:00 +15°C° 0 mm 0 mps 758 mmHg 86%
    03:00 +16°C° 0 mm 1 mps 758 mmHg 87%
    04:00 +15°C° 0 mm 1 mps 758 mmHg 87%
    05:00 +15°C° 0 mm 1 mps 758 mmHg 87%
    06:00 +15°C° 0 mm 1 mps 759 mmHg 88%
    07:00 +15°C° 0 mm 1 mps 759 mmHg 88%
    08:00 +14°C° 0 mm 0 mps 759 mmHg 89%
    09:00 +16°C° 0 mm 1 mps 760 mmHg 83%
    10:00 +18°C° 0 mm 1 mps 760 mmHg 77%
    11:00 +20°C° 0 mm 1 mps 760 mmHg 71%
    12:00 +20°C° 0 mm 1 mps 760 mmHg 69%
    13:00 +20°C° 0 mm 1 mps 760 mmHg 67%
    14:00 +21°C° 0 mm 1 mps 760 mmHg 65%
    15:00 +20°C° 0 mm 1 mps 760 mmHg 69%
    16:00 +19°C° 0 mm 1 mps 760 mmHg 73%
    17:00 +18°C° 0 mm 1 mps 760 mmHg 77%
    18:00 +18°C° 0 mm 1 mps 761 mmHg 79%
    19:00 +16°C° 0 mm 1 mps 761 mmHg 82%
    20:00 +15°C° 0 mm 0 mps 761 mmHg 84%
    21:00 +14°C° 0 mm 0 mps 762 mmHg 85%
    22:00 +14°C° 0 mm 0 mps 762 mmHg 86%
    23:00 +14°C° 0 mm 0 mps 762 mmHg 87%

    16 November, Saturday

    Time Temperature Precipitation Wind Pressure Humidity
    00:00 +14°C° 0 mm 0 mps 762 mmHg 88%
    01:00 +13°C° 0 mm 0 mps 762 mmHg 88%
    02:00 +13°C° 0 mm 0 mps 763 mmHg 88%
    03:00 +13°C° 0 mm 0 mps 763 mmHg 88%
    04:00 +13°C° 0 mm 0 mps 763 mmHg 88%
    05:00 +13°C° 0 mm 0 mps 762 mmHg 88%
    06:00 +13°C° 0 mm 0 mps 763 mmHg 87%
    07:00 +13°C° 0 mm 0 mps 763 mmHg 87%
    08:00 +13°C° 0 mm 0 mps 763 mmHg 86%
    09:00 +15°C° 0 mm 0 mps 763 mmHg 81%
    10:00 +18°C° 0 mm 1 mps 763 mmHg 75%
    11:00 +20°C° 0 mm 1 mps 763 mmHg 69%
    12:00 +20°C° 0 mm 1 mps 763 mmHg 68%
    13:00 +19°C° 0 mm 2 mps 763 mmHg 66%
    14:00 +20°C° 0 mm 2 mps 762 mmHg 65%
    15:00 +19°C° 0 mm 2 mps 762 mmHg 72%
    16:00 +17°C° 0 mm 2 mps 762 mmHg 80%
    17:00 +16°C° 0 mm 3 mps 762 mmHg 87%
    18:00 +16°C° 0 mm 3 mps 762 mmHg 90%
    19:00 +14°C° 0 mm 3 mps 762 mmHg 92%
    20:00 +14°C° 0 mm 3 mps 763 mmHg 95%
    21:00 +14°C° 0 mm 3 mps 763 mmHg 94%
    22:00 +14°C° 0 mm 3 mps 763 mmHg 92%
    23:00 +15°C° 0 mm 4 mps 763 mmHg 90%

    17 November, Sunday

    Time Temperature Precipitation Wind Pressure Humidity
    00:00 +14°C° 0 mm 4 mps 762 mmHg 90%
    01:00 +14°C° 0 mm 4 mps 762 mmHg 89%
    02:00 +14°C° 0 mm 4 mps 762 mmHg 88%
    03:00 +14°C° 0 mm 4 mps 762 mmHg 87%
    04:00 +13°C° 0 mm 4 mps 762 mmHg 86%
    05:00 +13°C° 0 mm 4 mps 762 mmHg 85%
    06:00 +13°C° 0 mm 4 mps 762 mmHg 84%
    07:00 +12°C° 0 mm 4 mps 762 mmHg 83%
    08:00 +12°C° 0 mm 4 mps 762 mmHg 83%
    09:00 +13°C° 0 mm 4 mps 762 mmHg 79%
    10:00 +13°C° 0 mm 4 mps 762 mmHg 76%
    11:00 +13°C° 0 mm 4 mps 762 mmHg 72%
    12:00 +14°C° 0 mm 4 mps 762 mmHg 72%
    13:00 +14°C° 0 mm 4 mps 762 mmHg 71%
    14:00 +15°C° 0 mm 4 mps 761 mmHg 71%
    15:00 +14°C° 0 mm 4 mps 761 mmHg 72%
    16:00 +14°C° 0 mm 4 mps 762 mmHg 74%
    17:00 +14°C° 0 mm 4 mps 762 mmHg 75%
    18:00 +14°C° 0 mm 4 mps 762 mmHg 75%
    19:00 +14°C° 0 mm 4 mps 762 mmHg 75%
    20:00 +14°C° 0 mm 4 mps 762 mmHg 76%
    21:00 +14°C° 0 mm 4 mps 762 mmHg 76%
    22:00 +14°C° 0 mm 4 mps 762 mmHg 76%
    23:00 +14°C° 0 mm 4 mps 762 mmHg 76%
    Show more